SL-19 DEB, 23488

Orbit data source: Space-Track

SL-19 DEB, 23488 is space debris in LEO originally from a launch on Mon, 26 Dec 1994 UTC launched from the Tyuratam Missile And Space Complex (TTMTR). Debris objects in space refer to the collection of defunct objects orbiting the Earth. Examples of debris include non-operational satellites, rocket bodies, and fragments generated from explosions, collisions, or faulty payload assembly.

Loading next visibility...
Identifier
23488, 1994-085L
Orbit
LEO
Country
Flag of CISCIS
Related business
Manufacturer
Unknown
Mission
Spacecraft
Bus & Motor
Unknown
Mass
Unknown
Launch date (UTC)
1994-12-26 (31 years ago)
Launch vehicle
Unknown
Launch site
Tyuratam Missile And Space Complex (TTMTR)
Object type
Payload
Rocket body
Debris
Shape & HBR
Unknown shape, 0.4 m
Radar Cross Section
Medium (>0.1 m² and <1 m²)

Expand to show TLE details & history
Last TLE update: 9 hours ago

TLE from 9 hours ago
0 SL-19 DEB
1 23488U 94085L   26013.25321428 -.00000094  00000-0 -14149-2 0  9996
2 23488  65.0022 328.2396 0207936 146.9133   3.3445 11.29731702277423
Epoch: 2026-01-13T06:04Z
TLE epoch observation values (Epoch: 2026-01-13T06:04:37.713Z)
Latitude
26.64227°
Longitude
-69.11833°
Altitude
1,839.604 km
Speed
7.04 km/s
True Right ascension
08h 59m 06s
True Declination
26° 31' 22"
Sunlit
Object was in full shadow at epoch
Visualization orbit readout
Latitude
Unknown
Longitude
Unknown
Altitude
Unknown
Speed
Unknown
Apparent Right ascension
Unknown
Apparent Declination
Unknown
Sunlit
N/A
Visualization observer readout
Local Sidereal Time
15:21:55
Azimuth
Unknown
Elevation
Unknown
Doppler factor
Unknown
Orbital elements
Apogee altitude
2,184.878 km
Perigee altitude
1,836.02 km
Semi-major axis
8,388.586 km
Eccentricity
0.02079
Inclination
65.0022°
RAAN
328.2396°
Arg. of periapsis
146.9133°
True anomaly
3.48721°
Mean anomaly
3.3445°
Eccentric anomaly
3.41548°
Mean motion
2.82495 °/min
Orbital period
127.44 mins
BSTAR
-0.0014149
Loading maneuver chart data...
Computing Atmospheric mass density...
Loading historical data...
Loading historical data...
Loading historical data...
Loading historical data...
Loading historical data...
Loading historical data...
Loading historical data...

Documentation

Showing up to 5 results
|